Wind_Speed
1 1 2 3 4 4 5 6 8 10 12 14 15 17 18 19 20 20 20 21 21 21 21 21 20 19 18 19 20 20 20 20 21 22 23 25 26 26 27 28 28 28
2 3 4 4 4 5 6 8 10 12 13 15 16 18 19 20 20 20 19 20 20 21 21 20 19 19 18 18 18 17 18 19 21 22 22 23 24 25 27 27 28 29
6 6 7 7 7 7 8 10 12 13 14 15 16 18 19 20 20 20 19 19 20 21 21 20 19 19 19 17 16 16 17 19 21 21 20 21 23 24 26 27 28 28
9 9 9 9 9 8 8 10 13 14 13 14 16 18 18 20 21 20 19 19 20 21 21 19 18 18 18 16 15 16 16 16 16 17 17 18 18 20 22 24 25 26
10 9 8 7 7 7 8 10 12 12 12 13 15 17 18 20 21 20 20 20 20 19 19 18 18 17 16 16 15 15 14 13 13 13 14 14 14 16 16 16 19 22
9 8 7 6 7 8 9 10 11 10 11 13 14 15 18 20 20 19 18 18 19 18 18 18 17 15 15 15 15 15 13 12 11 12 12 13 13 15 14 11 13 16
9 9 8 7 7 8 9 10 10 10 11 13 13 15 18 19 18 17 16 16 17 17 18 17 16 14 14 14 14 15 14 13 13 12 11 12 13 14 14 12 10 10
11 10 9 9 8 9 9 9 9 11 12 13 14 16 17 17 16 16 16 16 16 17 18 18 16 14 13 14 14 15 16 16 15 14 13 13 13 13 13 13 11 9
12 11 11 11 11 11 10 9 11 13 13 14 16 16 15 15 16 16 18 18 19 19 18 18 17 15 14 15 15 15 16 16 17 17 15 14 13 14 13 13 11 10
12 12 13 14 15 15 13 13 14 15 15 15 16 16 15 16 17 18 20 21 21 21 21 20 19 17 16 15 16 16 16 15 16 17 16 15 14 14 15 14 12 12
13 13 14 15 16 16 15 16 16 16 16 16 16 17 17 17 19 21 23 23 23 23 22 21 20 18 17 16 17 19 19 18 17 17 17 16 15 14 15 15 14 14
14 15 14 15 16 16 16 16 17 17 17 17 18 18 18 19 21 23 24 24 24 23 23 22 21 19 18 18 18 20 21 21 21 21 20 19 18 17 16 16 16 16
15 15 16 16 17 18 18 17 17 17 17 18 19 20 21 22 23 24 24 24 24 24 24 24 23 21 19 19 20 20 21 21 21 21 22 22 21 20 19 18 17 17
16 16 16 17 17 18 18 17 17 17 18 18 19 21 23 24 25 25 24 25 26 25 25 25 25 24 22 20 20 21 21 21 21 20 21 21 21 21 21 22 21 21
17 17 17 17 17 18 18 18 18 18 19 19 21 22 23 24 26 26 26 27 27 27 27 27 27 27 25 21 21 22 22 22 23 23 22 22 22 23 23 24 26 25
18 17 17 17 18 19 19 19 20 20 21 22 23 24 24 25 26 27 28 29 29 29 29 29 29 29 26 23 23 25 26 27 27 27 27 26 25 25 25 25 27 27
18 17 18 18 19 20 21 22 22 23 24 25 26 26 27 27 28 29 30 30 30 31 31 30 30 29 28 26 27 28 30 32 33 32 32 32 31 29 28 27 27 28
19 19 20 20 21 22 23 23 24 25 26 27 28 28 29 29 30 31 31 31 30 31 31 30 29 29 27 27 28 29 31 33 35 36 36 35 34 33 32 30 30 29
18 20 21 22 22 23 24 25 26 27 28 28 28 29 30 31 31 31 31 31 31 31 31 30 29 28 27 28 29 29 31 34 36 38 39 38 37 38 36 35 34 32
18 20 20 21 22 23 25 26 28 28 28 28 29 30 31 32 32 32 32 31 31 31 31 30 28 27 26 27 29 30 31 34 36 37 39 40 40 40 40 39 37 36
19 20 20 20 22 24 26 27 27 27 27 28 29 31 31 32 32 32 32 32 32 32 32 31 28 26 26 27 28 29 31 33 34 36 38 39 40 41 41 41 39 38
20 21 21 21 22 24 25 26 26 26 26 28 30 31 31 32 32 33 33 33 33 33 34 33 31 28 27 28 29 30 32 33 34 36 37 38 38 39 40 40 39 39
22 23 23 22 22 24 24 24 25 26 26 28 30 32 32 32 33 33 33 34 34 35 35 35 34 31 30 30 30 32 33 34 35 36 37 37 37 37 38 39 39 38
22 23 23 23 24 24 25 25 26 27 28 29 31 32 31 31 32 33 34 34 34 34 35 35 35 33 32 32 31 32 33 34 35 36 36 36 35 36 38 38 38 37
20 21 22 23 24 24 25 26 27 28 28 30 31 31 31 30 31 32 33 33 33 32 33 34 34 33 33 33 32 33 33 34 34 35 35 34 34 35 36 37 37 37
19 20 21 22 23 24 26 27 27 28 29 29 29 30 30 30 30 31 31 31 31 31 31 32 32 32 32 32 33 33 33 34 35 35 33 32 33 34 35 36 36 36
Wind_Direction
45 43 58 64 58 40 23 8 1 1 358 353 351 349 348 349 349 346 346 347 348 346 343 340 337 332 324 316 312 310 308 303 295 292 288 284 282 279 276 273 268 263
87 79 77 71 62 47 34 25 16 9 5 5 5 4 2 359 356 357 358 356 353 351 349 347 345 343 336 326 318 315 314 310 302 297 292 287 286 282 278 277 273 266
90 85 81 70 62 52 41 32 22 15 16 20 18 13 8 3 360 2 5 1 357 355 356 355 353 351 349 342 333 326 320 313 306 300 297 294 290 285 281 279 275 269
95 92 84 72 62 52 38 32 29 23 21 25 25 19 12 5 3 4 3 0 0 359 359 2 0 357 355 350 343 338 334 330 323 313 308 306 302 296 290 283 277 271
88 84 75 59 47 42 33 29 28 19 15 26 29 20 12 7 6 7 6 4 6 4 3 5 2 359 359 355 350 348 348 348 343 334 330 329 324 319 312 298 285 276
72 67 63 52 42 40 34 32 28 16 18 30 29 18 14 13 9 10 11 12 13 11 8 7 4 6 9 5 359 355 354 355 350 343 341 342 341 341 343 330 301 283
60 52 51 52 50 47 41 35 31 30 35 38 34 27 23 18 12 12 15 18 20 18 15 13 10 13 18 15 8 2 2 8 5 357 350 351 355 356 356 348 328 306
56 49 46 47 53 55 49 39 38 47 51 47 43 37 29 21 16 19 22 24 26 24 20 17 16 17 19 18 15 10 9 13 15 10 1 357 1 2 356 350 343 331
58 57 58 61 65 65 62 56 56 59 57 52 50 45 38 31 28 29 33 34 34 32 27 24 24 24 20 17 16 13 8 10 17 19 14 9 8 7 2 355 352 346
67 68 71 72 72 72 71 67 65 65 63 60 58 53 48 45 42 41 41 41 39 37 33 31 30 29 26 24 23 20 13 10 16 21 22 20 14 10 7 2 358 354
74 74 74 75 75 74 73 70 69 69 67 64 61 59 57 56 53 48 45 44 42 39 35 33 32 29 28 29 33 35 32 29 28 28 30 30 22 16 11 7 3 357
73 72 74 76 79 78 76 74 71 71 70 67 63 63 63 63 58 52 47 46 45 42 39 35 33 32 31 30 37 43 43 42 39 36 35 35 34 31 25 18 11 3
72 75 77 79 82 82 79 76 73 71 70 69 68 66 65 64 61 55 52 50 46 45 43 38 36 38 38 37 41 45 45 44 41 37 35 34 33 33 32 27 21 14
75 79 81 81 83 83 78 74 73 72 71 72 71 68 66 64 61 57 55 53 49 46 45 42 41 41 41 45 48 48 46 44 41 38 37 36 33 32 33 31 30 28
78 80 82 82 81 79 77 75 75 73 73 73 70 67 66 64 61 59 57 55 52 50 48 46 44 41 40 47 54 54 52 50 47 43 40 38 36 36 37 36 34 34
81 81 82 83 80 79 78 76 76 75 73 71 69 66 65 63 62 60 58 57 54 53 52 50 48 45 42 46 55 58 57 54 50 47 44 41 38 38 39 39 36 34
83 83 84 84 82 81 80 78 77 76 74 72 69 67 65 64 63 61 59 57 56 56 55 54 53 52 49 48 52 55 57 56 52 49 47 43 41 40 40 41 41 37
82 82 82 82 82 82 81 79 79 77 74 72 70 68 67 66 64 62 60 59 58 58 58 57 56 55 54 53 53 55 57 57 56 53 49 45 42 43 43 44 45 42
82 80 79 80 81 82 81 80 79 77 74 73 71 70 70 69 67 65 63 61 60 59 58 58 58 58 58 58 57 57 57 58 57 55 52 48 45 44 45 46 46 44
86 83 81 81 82 83 82 81 79 77 75 73 73 73 72 70 67 66 64 62 61 60 58 58 58 59 61 62 61 61 60 59 59 57 55 52 48 46 45 44 44 43
92 90 88 87 86 85 84 82 80 78 76 74 74 73 72 70 68 66 63 61 59 59 58 57 56 57 60 63 63 63 62 61 60 59 58 55 52 48 46 43 42 41
98 96 94 91 89 87 85 83 81 79 77 76 76 75 73 71 69 66 64 62 60 60 59 57 55 55 58 61 62 62 61 60 59 58 57 56 53 51 49 46 44 42
100 97 94 92 90 88 85 84 83 81 80 79 79 76 74 71 69 67 65 64 62 61 60 58 56 55 57 59 60 61 60 58 57 56 55 54 52 52 52 50 48 46
101 97 93 91 90 89 88 87 86 84 82 82 81 78 75 73 71 70 68 66 64 62 61 60 58 55 55 56 57 59 60 58 57 56 55 52 51 51 52 51 50 47
104 100 96 94 93 92 92 90 89 88 86 85 83 80 78 76 74 73 71 68 66 65 63 62 59 56 55 54 54 56 58 59 58 56 53 50 49 49 50 50 49 48
109 106 102 99 99 97 96 94 93 91 89 87 85 82 79 77 75 73 71 68 67 65 63 62 59 57 55 55 55 55 57 58 58 56 52 49 48 47 47 47 47 46
Height
819 818 817 817 816 815 815 814 812 811 809 807 806 805 803 801 799 797 794 793 791 789 788 786 784 782 781 779 778 777 775 774 774 773 773 772 771 770 769 769 770 770
819 818 817 816 816 815 814 813 812 810 809 808 806 805 803 801 799 797 795 793 791 789 787 785 783 781 780 778 777 775 774 773 772 771 770 769 769 768 767 767 766 766
819 818 817 816 815 815 814 812 811 810 809 808 807 805 804 802 800 797 795 793 791 789 787 785 783 781 780 778 776 775 773 772 770 769 768 767 766 766 765 765 764 764
818 818 816 816 815 814 813 812 811 810 809 808 806 805 804 802 800 797 796 794 792 789 787 785 784 782 780 778 776 775 773 771 769 767 767 766 765 764 763 763 762 761
818 817 816 815 814 814 813 812 811 810 809 807 806 805 804 802 800 798 796 794 792 790 788 786 785 783 781 779 777 775 772 771 769 768 766 765 765 764 762 761 760 759
817 817 816 815 814 814 813 812 811 810 809 807 806 805 804 802 801 799 797 795 793 791 789 787 785 783 782 779 777 775 773 771 770 768 767 766 764 763 761 759 758 758
817 817 816 815 814 814 813 813 812 811 809 808 806 805 804 803 802 800 798 796 794 792 790 788 786 784 782 780 778 776 774 772 771 769 768 766 764 763 761 759 758 758
817 817 816 815 814 814 814 813 812 811 809 808 807 806 805 804 803 801 799 797 795 793 791 789 787 785 783 781 779 777 775 773 771 770 768 767 765 764 762 761 760 759
817 817 816 816 815 814 814 814 813 812 810 809 808 807 806 805 804 802 800 798 796 795 793 790 788 786 784 782 780 778 776 774 772 771 769 768 767 766 764 763 762 761
818 818 818 816 816 815 815 815 814 813 811 810 809 808 807 806 805 803 801 800 798 796 794 792 790 788 786 784 781 779 777 775 774 772 770 769 768 767 766 765 764 762
819 819 819 818 817 817 816 816 815 814 813 812 811 810 809 808 806 804 803 801 799 797 796 794 791 789 787 785 783 781 779 777 776 774 772 770 769 768 767 766 765 763
821 820 820 819 818 818 818 817 816 816 814 813 813 811 810 809 807 806 804 802 801 799 797 795 793 791 788 786 784 782 781 779 778 776 775 773 771 769 768 767 766 765
822 822 821 820 820 819 819 819 818 817 816 815 814 813 811 810 808 807 806 804 803 801 799 797 795 792 789 787 786 784 783 781 780 778 777 775 773 771 769 768 767 766
823 823 823 822 822 821 821 820 819 818 817 816 815 814 812 811 810 810 808 806 804 803 801 799 796 793 791 789 787 786 785 783 782 780 778 777 775 774 772 770 769 768
825 825 825 825 824 823 822 822 821 820 819 818 816 815 814 813 812 811 810 808 806 805 803 800 798 796 794 792 790 788 787 785 783 782 780 779 777 775 774 772 771 770
828 827 827 826 825 824 824 823 823 822 821 819 818 817 816 815 814 813 811 810 808 807 805 803 801 800 799 797 793 791 790 788 786 784 783 781 780 778 776 775 773 772
830 829 828 827 827 826 826 825 824 823 822 821 820 819 818 817 815 814 813 812 811 809 807 806 805 804 803 801 798 795 793 791 790 788 786 785 783 781 780 778 776 774
832 831 830 829 829 828 828 827 826 825 824 823 822 821 820 819 817 816 816 815 814 812 810 809 808 807 805 804 802 799 797 795 793 792 790 788 787 785 784 782 779 777
833 832 832 831 831 831 830 829 828 827 826 825 824 824 822 821 820 819 818 817 816 815 814 812 811 810 809 807 805 803 801 798 797 795 794 792 791 789 788 785 783 781
835 834 834 834 834 833 832 831 830 829 829 828 827 826 824 823 822 822 821 820 819 818 817 815 814 813 811 809 807 805 804 802 800 799 797 796 795 793 791 790 788 786
836 836 836 836 836 835 834 833 832 832 831 830 829 828 827 826 825 824 824 823 822 821 820 818 817 816 814 812 810 808 806 805 803 801 800 799 798 797 795 794 792 790
838 838 838 838 838 836 836 835 835 834 834 833 832 831 830 829 828 827 827 826 825 824 822 821 821 820 817 815 813 811 809 807 806 804 803 802 801 800 799 798 796 794
840 840 840 840 839 838 838 838 837 837 837 836 834 833 833 832 832 831 830 829 828 827 825 824 824 823 821 819 816 814 812 810 809 808 806 806 805 804 803 802 801 799
842 842 842 841 841 840 840 840 840 839 839 838 837 836 836 836 836 835 833 832 831 830 829 828 827 827 825 823 820 818 815 814 813 812 810 810 810 809 807 806 805 804
844 844 843 843 843 843 842 842 842 842 842 841 840 840 839 839 839 837 836 836 835 834 833 832 831 830 829 827 825 822 820 818 817 815 814 814 814 813 811 810 809 807
845 846 845 845 845 845 845 844 844 844 844 843 843 843 842 842 841 840 839 839 839 837 836 835 834 834 832 831 829 826 824 823 820 819 819 818 817 816 814 813 812 811